JA1KWV-11 Weather Reports


time (UTC)temp
C
wind
direction
speed
KPH
gust
KPH
rain 1hr
cm
rain 24hr
cm
rain mn
cm
humidity
%
barometer
mb
20260508203142 25 267 0.0 0.0 0.00 0.00 0.00 69 1006.3
20260508202342 25 267 0.0 0.0 0.00 0.00 0.00 69 1006.3
20260508201542 25 267 0.0 0.0 0.00 0.00 0.00 69 1006.2
20260508200741 25 267 0.0 0.0 0.00 0.00 0.00 69 1005.9
20260508195941 25 267 0.0 0.0 0.00 0.00 0.00 69 1006.0
20260508195141 25 267 0.0 0.0 0.00 0.00 0.00 68 1005.9
20260508194341 25 267 0.0 0.0 0.00 0.00 0.00 69 1005.6
20260508193540 25 267 0.0 0.0 0.00 0.00 0.00 70 1005.3
20260508192740 25 267 0.0 0.0 0.00 0.00 0.00 68 1005.2
20260508191940 25 267 0.0 0.0 0.00 0.00 0.00 68 1005.0
20260508191140 25 267 0.0 0.0 0.00 0.00 0.00 68 1005.1
20260508190340 25 267 0.0 0.0 0.00 0.00 0.00 68 1004.9
20260508185539 25 267 0.0 0.0 0.00 0.00 0.00 68 1005.0
20260508184739 25 267 0.0 0.0 0.00 0.00 0.00 68 1004.7
20260508183939 25 267 0.0 0.0 0.00 0.00 0.00 68 1004.8
20260508183139 25 267 0.0 0.0 0.00 0.00 0.00 68 1004.9
20260508182338 25 267 0.0 0.0 0.00 0.00 0.00 68 1004.8
20260508181538 25 267 0.0 0.0 0.00 0.00 0.00 67 1004.7
20260508180738 25 267 0.0 0.0 0.00 0.00 0.00 68 1004.5
20260508175938 25 267 0.0 0.0 0.00 0.00 0.00 68 1004.4
20260508175138 25 267 0.0 0.0 0.00 0.00 0.00 68 1004.3
20260508174337 25 267 0.0 0.0 0.00 0.00 0.00 68 1004.3
20260508173537 25 267 0.0 0.0 0.00 0.00 0.00 67 1004.2
20260508172737 25 267 0.0 0.0 0.00 0.00 0.00 67 1004.1
20260508171937 25 267 0.0 0.0 0.00 0.00 0.00 68 1004.3
20260508171136 25 267 0.0 0.0 0.00 0.00 0.00 65 1004.1
20260508170336 25 267 0.0 0.0 0.00 0.00 0.00 67 1004.1
20260508165536 25 267 0.0 0.0 0.00 0.00 0.00 67 1003.9
20260508164736 25 267 0.0 0.0 0.00 0.00 0.00 66 1003.9
20260508163936 25 267 0.0 0.0 0.00 0.00 0.00 66 1003.6
20260508163135 25 267 0.0 0.0 0.00 0.00 0.00 66 1003.7
20260508162335 25 267 0.0 0.0 0.00 0.00 0.00 65 1003.5
20260508161535 25 267 0.0 0.0 0.00 0.00 0.00 65 1003.4
20260508160735 25 267 0.0 0.0 0.00 0.00 0.00 64 1003.5
20260508155935 25 267 0.0 0.0 0.00 0.00 0.00 64 1003.3
20260508155134 25 267 0.0 0.0 0.00 0.00 0.00 62 1003.5
20260508154334 26 267 0.0 0.0 0.00 0.00 0.00 63 1003.6
20260508153534 26 267 0.0 0.0 0.00 0.00 0.00 67 1003.4
20260508152734 26 267 0.0 0.0 0.00 0.00 0.00 67 1003.6
20260508151933 26 267 0.0 0.0 0.00 0.00 0.00 67 1003.6
20260508151133 26 267 0.0 0.0 0.00 0.00 0.00 68 1003.6
20260508150333 26 267 0.0 0.0 0.00 0.00 0.00 68 1003.3
20260508145533 26 267 0.0 0.0 0.00 0.00 0.00 69 1003.1
20260508144732 26 267 0.0 0.0 0.00 0.00 0.00 68 1003.0
20260508143932 26 267 0.0 0.0 0.00 0.00 0.00 69 1003.0
20260508143132 26 267 0.0 0.0 0.00 0.00 0.00 70 1002.9
20260508142332 26 267 0.0 0.0 0.00 0.00 0.00 73 1002.7
20260508141532 26 267 0.0 0.0 0.00 0.00 0.00 72 1002.8
20260508140731 26 267 0.0 0.0 0.00 0.00 0.00 74 1002.6
20260508135931 26 267 0.0 0.0 0.00 0.00 0.00 74 1002.6
20260508135131 26 267 0.0 0.0 0.00 0.00 0.00 74 1002.4
20260508134331 26 267 0.0 0.0 0.00 0.00 0.00 74 1002.4
20260508133531 26 267 0.0 0.0 0.00 0.00 0.00 73 1002.0
20260508132730 26 267 0.0 0.0 0.00 0.00 0.00 74 1001.7
20260508131930 26 267 0.0 0.0 0.00 0.00 0.00 74 1001.6
20260508131130 26 267 0.0 0.0 0.00 0.00 0.00 74 1001.5
20260508130330 26 267 0.0 0.0 0.00 0.00 0.00 75 1001.8
20260508125529 26 267 0.0 0.0 0.00 0.00 0.00 75 1001.8
20260508124729 26 267 0.0 0.0 0.00 0.00 0.00 74 1001.6
20260508123929 26 267 0.0 0.0 0.00 0.00 0.00 75 1001.7
20260508123129 26 267 0.0 0.0 0.00 0.00 0.00 75 1001.5
20260508122328 26 267 0.0 0.0 0.00 0.00 0.00 75 1001.4
20260508121528 26 267 0.0 0.0 0.00 0.00 0.00 76 1001.3
20260508120728 26 267 0.0 0.0 0.00 0.00 0.00 76 1001.2
20260508115928 26 267 0.0 0.0 0.00 0.00 0.00 75 1001.1
20260508115128 26 267 0.0 0.0 0.00 0.00 0.00 75 1000.9
20260508114327 26 267 0.0 0.0 0.00 0.00 0.00 75 1000.9
20260508113527 26 267 0.0 0.0 0.00 0.00 0.00 76 1001.0
20260508112727 26 267 0.0 0.0 0.00 0.00 0.00 76 1001.2
20260508111927 26 267 0.0 0.0 0.00 0.00 0.00 76 1001.1
20260508111126 26 267 0.0 0.0 0.00 0.00 0.00 76 1001.1
20260508110326 26 267 0.0 0.0 0.00 0.00 0.00 76 1000.8
20260508105526 26 267 0.0 0.0 0.00 0.00 0.00 75 1000.7
20260508104726 26 267 0.0 0.0 0.00 0.00 0.00 76 1000.5
20260508103926 26 267 0.0 0.0 0.00 0.00 0.00 75 1000.2
20260508103125 26 267 0.0 0.0 0.00 0.00 0.00 75 1000.4
20260508102325 26 267 0.0 0.0 0.00 0.00 0.00 75 1000.5
20260508101525 26 267 0.0 0.0 0.00 0.00 0.00 76 1000.3
20260508100725 26 267 0.0 0.0 0.00 0.00 0.00 76 1000.3
20260508095925 26 267 0.0 0.0 0.00 0.00 0.00 76 1000.4
20260508095124 26 267 0.0 0.0 0.00 0.00 0.00 76 1000.6
20260508094324 26 267 0.0 0.0 0.00 0.00 0.00 76 1000.8
20260508093524 26 267 0.0 0.0 0.00 0.00 0.00 76 1000.7
20260508092724 26 267 0.0 0.0 0.00 0.00 0.00 75 1000.3
20260508091923 26 267 0.0 0.0 0.00 0.00 0.00 77 1000.3
20260508091123 26 267 0.0 0.0 0.00 0.00 0.00 76 1000.4
20260508090323 26 267 0.0 0.0 0.00 0.00 0.00 75 1000.4
20260508085523 26 267 0.0 0.0 0.00 0.00 0.00 76 1000.4
20260508084723 26 267 0.0 0.0 0.00 0.00 0.00 77 1000.5
20260508083922 26 267 0.0 0.0 0.00 0.00 0.00 77 1000.5
20260508083122 26 267 0.0 0.0 0.00 0.00 0.00 77 1000.6
20260508082322 26 267 0.0 0.0 0.00 0.00 0.00 76 1000.8
20260508081522 26 267 0.0 0.0 0.00 0.00 0.00 77 1000.9
20260508080721 26 267 0.0 0.0 0.00 0.00 0.00 77 1000.8
20260508075921 26 267 0.0 0.0 0.00 0.00 0.00 76 1001.1
20260508075121 26 267 0.0 0.0 0.00 0.00 0.00 77 1000.9
20260508074321 26 267 0.0 0.0 0.00 0.00 0.00 77 1000.9
20260508073521 26 267 0.0 0.0 0.00 0.00 0.00 77 1001.0
20260508072720 26 267 0.0 0.0 0.00 0.00 0.00 76 1001.0
20260508071920 26 267 0.0 0.0 0.00 0.00 0.00 77 1001.3
20260508071120 26 267 0.0 0.0 0.00 0.00 0.00 77 1001.3
20260508070320 26 267 0.0 0.0 0.00 0.00 0.00 77 1001.3
20260508065519 26 267 0.0 0.0 0.00 0.00 0.00 77 1001.4
20260508064719 26 267 0.0 0.0 0.00 0.00 0.00 78 1001.5
20260508063919 26 267 0.0 0.0 0.00 0.00 0.00 77 1001.9
20260508063119 26 267 0.0 0.0 0.00 0.00 0.00 77 1002.0
20260508062319 26 267 0.0 0.0 0.00 0.00 0.00 79 1001.9
20260508061518 27 267 0.0 0.0 0.00 0.00 0.00 79 1001.8
20260508060718 27 267 0.0 0.0 0.00 0.00 0.00 78 1001.9
20260508055918 26 267 0.0 0.0 0.00 0.00 0.00 79 1002.2
20260508055118 27 267 0.0 0.0 0.00 0.00 0.00 78 1002.4
20260508054317 26 267 0.0 0.0 0.00 0.00 0.00 78 1002.2
20260508053517 26 267 0.0 0.0 0.00 0.00 0.00 79 1002.4
20260508052717 26 267 0.0 0.0 0.00 0.00 0.00 78 1002.8
20260508051917 26 267 0.0 0.0 0.00 0.00 0.00 78 1002.9
20260508051117 26 267 0.0 0.0 0.00 0.00 0.00 78 1003.2
20260508050316 26 267 0.0 0.0 0.00 0.00 0.00 79 1003.1
20260508045516 26 267 0.0 0.0 0.00 0.00 0.00 78 1003.1
20260508044716 26 267 0.0 0.0 0.00 0.00 0.00 79 1003.2
20260508043916 26 267 0.0 0.0 0.00 0.00 0.00 79 1003.2
20260508043115 26 267 0.0 0.0 0.00 0.00 0.00 79 1003.2
20260508042315 26 267 0.0 0.0 0.00 0.00 0.00 79 1003.5
20260508041515 26 267 0.0 0.0 0.00 0.00 0.00 79 1003.8
20260508040715 26 267 0.0 0.0 0.00 0.00 0.00 78 1004.2
20260508035915 26 267 0.0 0.0 0.00 0.00 0.00 78 1004.1
20260508035114 26 267 0.0 0.0 0.00 0.00 0.00 78 1004.1
20260508034314 26 267 0.0 0.0 0.00 0.00 0.00 79 1004.1
20260508033514 26 267 0.0 0.0 0.00 0.00 0.00 79 1004.2
20260508032714 26 267 0.0 0.0 0.00 0.00 0.00 78 1004.4
20260508031914 26 267 0.0 0.0 0.00 0.00 0.00 78 1004.5
20260508031113 26 267 0.0 0.0 0.00 0.00 0.00 78 1004.7
20260508030313 26 267 0.0 0.0 0.00 0.00 0.00 78 1005.1
20260508025513 26 267 0.0 0.0 0.00 0.00 0.00 78 1005.0
20260508024713 26 267 0.0 0.0 0.00 0.00 0.00 77 1005.1
20260508023913 26 267 0.0 0.0 0.00 0.00 0.00 77 1005.2
20260508023112 26 267 0.0 0.0 0.00 0.00 0.00 78 1005.4
20260508022312 26 267 0.0 0.0 0.00 0.00 0.00 76 1005.1
20260508021512 26 267 0.0 0.0 0.00 0.00 0.00 78 1005.2
20260508020711 26 267 0.0 0.0 0.00 0.00 0.00 78 1005.4
20260508015911 26 267 0.0 0.0 0.00 0.00 0.00 76 1005.4
20260508015111 26 267 0.0 0.0 0.00 0.00 0.00 77 1005.3
20260508014311 26 267 0.0 0.0 0.00 0.00 0.00 77 1005.3
20260508013511 26 267 0.0 0.0 0.00 0.00 0.00 76 1005.4
20260508012710 26 267 0.0 0.0 0.00 0.00 0.00 77 1005.4
20260508011910 26 267 0.0 0.0 0.00 0.00 0.00 77 1005.4
20260508011110 26 267 0.0 0.0 0.00 0.00 0.00 78 1005.4
20260508010310 26 267 0.0 0.0 0.00 0.00 0.00 78 1005.7
20260508005510 26 267 0.0 0.0 0.00 0.00 0.00 76 1006.0
20260508004709 26 267 0.0 0.0 0.00 0.00 0.00 78 1005.9
20260508003909 26 267 0.0 0.0 0.00 0.00 0.00 78 1006.1
20260508003109 26 267 0.0 0.0 0.00 0.00 0.00 77 1006.6
20260508002309 26 267 0.0 0.0 0.00 0.00 0.00 79 1006.5
20260508001509 26 267 0.0 0.0 0.00 0.00 0.00 80 1006.4
20260508000708 26 267 0.0 0.0 0.00 0.00 0.00 80 1006.7
20260507235908 26 267 0.0 0.0 0.00 0.00 0.00 80 1006.5
20260507235108 26 267 0.0 0.0 0.00 0.00 0.00 78 1006.5
20260507234308 26 267 0.0 0.0 0.00 0.00 0.00 78 1006.9
20260507233507 26 267 0.0 0.0 0.00 0.00 0.00 78 1007.0
20260507232707 26 267 0.0 0.0 0.00 0.00 0.00 78 1007.0
20260507231907 26 267 0.0 0.0 0.00 0.00 0.00 78 1006.9
20260507231107 26 267 0.0 0.0 0.00 0.00 0.00 78 1006.9
20260507230307 26 267 0.0 0.0 0.00 0.00 0.00 78 1007.1
20260507225506 26 267 0.0 0.0 0.00 0.00 0.00 79 1007.1
20260507224706 26 267 0.0 0.0 0.00 0.00 0.00 79 1007.3
20260507223906 26 267 0.0 0.0 0.00 0.00 0.00 79 1007.4
20260507223106 26 267 0.0 0.0 0.00 0.00 0.00 79 1007.4
20260507222306 26 267 0.0 0.0 0.00 0.00 0.00 78 1007.4
20260507221505 26 267 0.0 0.0 0.00 0.00 0.00 78 1007.6
20260507220705 26 267 0.0 0.0 0.00 0.00 0.00 78 1007.8
20260507215905 26 267 0.0 0.0 0.00 0.00 0.00 79 1007.8
20260507215105 26 267 0.0 0.0 0.00 0.00 0.00 79 1007.8
20260507214304 26 267 0.0 0.0 0.00 0.00 0.00 78 1007.9
20260507213504 26 267 0.0 0.0 0.00 0.00 0.00 77 1007.7
20260507212704 26 267 0.0 0.0 0.00 0.00 0.00 78 1007.9
20260507211904 26 267 0.0 0.0 0.00 0.00 0.00 79 1007.7
20260507211103 26 267 0.0 0.0 0.00 0.00 0.00 77 1007.5
20260507210303 26 267 0.0 0.0 0.00 0.00 0.00 78 1007.6
20260507205503 26 267 0.0 0.0 0.00 0.00 0.00 78 1007.3
20260507204703 26 267 0.0 0.0 0.00 0.00 0.00 78 1007.6
20260507203903 26 267 0.0 0.0 0.00 0.00 0.00 78 1007.5